Location: Sevilla
(37.3933°N, 5.9839°W)
Time: 05:54:19
(UTC+02:00)

Transit 2A - Pass Details

Date: 02 July 2024
Orbit: 591 x 960 km, 66.7° (Epoch: 15 July)

Event Time Altitude Azimuth Distance (km) Brightness Sun altitude
Rises 00:10:29 0° 333° (NNW) 3,587 11.0 -21.5°
Reaches altitude 10° 00:13:00 10° 335° (NNW) 2,667 9.9 -21.7°
Maximum altitude 00:19:20 79° 62° (ENE) 982 6.4 -22.4°
Enters shadow 00:21:22 46° 139° (SE) 1,267 6.6 -22.6°
Drops below altitude 10° 00:25:38 10° 149° (SSE) 2,663 - -23.1°
Sets 00:28:09 0° 150° (SSE) 3,581 - -23.3°
